Probability
0 0 0 0 0 0 0 0 0 0 0 0 0 0 0 0 0 0 0 0 0 0 0 0 0 0 0 0 0 0 0 0 0 0 0 0 0 0 0 0 0 0 0
0 0 0 0 0 0 0 0 0 0 0 0 0 0 0 0 0 0 0 0 0 0 0 0 0 0 0 0 0 0 0 0 0 0 0 0 0 0 0 0 0 0 0
0 0 0 0 0 0 0 0 0 0 0 0 0 0 0 0 0 0 0 0 0 0 0 0 0 0 0 0 0 0 0 0 0 0 0 0 0 0 0 0 0 0 0
0 0 0 0 0 0 0 0 0 0 0 0 0 0 0 0 0 0 0 0 0 0 0 0 0 0 0 0 0 0 0 0 0 0 0 0 0 0 0 0 0 0 0
0 0 0 0 0 0 0 0 0 0 0 0 0 0 0 0 0 0 0 0 0 0 0 0 0 0 0 0 0 0 0 0 0 0 0 0 0 0 0 0 0 0 0
0 0 0 0 0 0 0 0 0 0 0 0 0 0 0 0 0 0 0 0 0 0 0 0 0 0 0 0 0 0 0 0 0 0 0 0 0 0 0 0 0 0 0
0 0 0 0 0 0 0 0 0 0 0 0 0 0 0 0 0 0 0 0 0 0 0 0 0 0 0 0 0 0 0 0 0 0 0 0 0 0 0 0 0 0 0
0 0 0 0 0 0 0 0 0 0 0 0 0 0 0 0 0 0 0 0 0 0 0 0 0 0 0 0 0 0 0 0 0 0 0 0 0 0 0 0 0 0 0
0 0 0 0 0 0 0 0 0 0 0 0 0 0 0 0 0 0 0 0 0 0 0 0 0 0 0 0 0 0 0 0 0 0 0 0 0 0 0 0 0 0 0
0 0 0 0 0 0 0 0 0 0 0 0 0 0 0 0 0 0 0 0 0 0 0 0 0 0 0 0 0 0 0 0 0 0 0 0 0 0 0 0 0 0 0
0 0 0 0 0 0 0 0 0 0 0 0 0 0 0 0 0 0 0 0 0 0 0 0 0 0 0 0 0 0 0 0 0 0 0 0 0 0 0 0 0 0 0
0 0 0 0 0 0 0 0 0 0 0 0 0 0 0 0 0 0 0 0 0 0 0 0 0 0 0 0 0 0 0 0 0 0 0 0 0 0 0 0 0 0 0
0 0 0 0 0 0 0 0 0 0 0 0 0 0 0 0 0 0 0 0 0 0 0 0 0 0 0 0 0 0 0 0 0 0 0 0 0 0 0 0 0 0 0
0 0 0 0 0 0 0 0 0 0 0 0 0 0 0 0 0 0 0 0 0 0 0 0 0 0 0 0 0 0 0 0 0 0 0 0 0 0 0 0 0 0 0
0 0 0 0 0 0 0 0 0 0 0 0 0 0 0 0 0 0 0 0 0 0 0 0 0 0 0 0 0 0 0 0 0 0 0 0 0 0 0 0 0 0 0
0 0 0 0 0 0 0 0 0 0 0 0 0 0 0 0 0 0 0 0 0 0 0 0 0 0 0 0 0 0 0 0 0 0 0 0 0 0 0 0 0 0 0
0 0 0 0 0 0 0 0 0 0 0 0 0 0 0 0 0 0 0 0 0 0 0 0 0 0 0 0 0 0 0 0 0 0 0 0 0 0 0 0 0 0 0
0 0 0 0 0 0 0 0 0 0 0 0 0 0 0 0 0 0 0 0 0 0 0 0 0 0 0 0 0 0 0 0 0 0 0 0 0 0 0 0 0 0 0
0 0 0 0 0 0 0 0 0 0 0 0 0 0 0 0 0 0 0 0 0 0 0 0 0 0 0 0 0 0 0 0 0 0 0 0 0 0 0 0 0 0 0
0 0 0 0 0 0 0 0 0 0 0 0 0 0 0 0 0 0 0 0 0 0 0 0 0 0 0 0 0 0 0 0 0 0 0 0 0 0 0 0 0 0 0
0 0 0 0 0 0 0 0 0 0 0 0 0 0 0 0 0 0 0 0 0 0 0 0 0 0 0 0 0 0 0 0 0 0 0 0 0 0 0 0 0 0 0
0 0 0 0 0 0 0 0 0 0 0 0 0 0 0 0 0 0 0 0 0 0 0 0 0 0 0 0 0 0 0 0 0 0 0 0 0 0 0 0 0 0 0
0 0 0 0 0 0 0 0 0 0 0 0 0 0 0 0 0 0 0 0 0 0 0 0 0 0 0 0 0 0 0 0 0 0 0 0 0 0 0 0 0 0 0
0 0 0 0 0 0 0 0 0 0 0 0 0 0 0 0 0 0 0 0 0 0 0 0 0 0 0 0 0 0 0 0 0 0 0 0 0 0 0 0 0 0 0
0 0 0 0 0 0 0 0 0 0 0 0 0 0 0 0 0 0 0 0 0 0 0 0 0 0 0 0 0 0 0 0 0 0 0 0 0 0 0 0 0 0 0
0 0 0 0 0 0 0 0 0 0 0 0 0 0 0 0 0 0 0 0 0 0 0 0 0 0 0 0 0 0 0 0 0 0 0 0 0 0 0 0 0 0 0
Wind_Speed
1 1 1 1 1 1 0 1 1 1 1 1 1 1 1 1 1 1 2 2 2 2 2 1 2 2 1 1 1 1 1 1 1 1 1 1 0 1 1 1 1 1 2
0 0 1 1 1 1 0 0 1 1 1 1 1 0 0 0 0 1 1 1 2 2 1 1 1 1 1 1 1 1 0 0 1 0 1 1 1 1 1 1 1 1 1
3 2 1 1 1 0 1 1 0 0 1 1 1 1 1 1 0 1 1 1 1 1 1 1 1 1 1 0 0 0 0 1 1 0 0 1 1 2 1 1 1 1 1
3 3 2 1 1 1 0 0 0 0 1 1 1 1 0 1 1 1 1 0 0 1 1 1 0 0 0 0 0 0 0 0 1 1 1 1 1 1 2 2 1 1 2
3 3 2 2 1 1 1 0 0 0 1 1 1 1 1 1 1 0 0 0 1 0 0 0 0 0 0 0 0 0 0 0 1 1 1 1 1 1 2 3 2 2 2
2 2 2 2 1 1 1 1 1 1 1 1 1 1 1 1 1 1 1 1 1 0 0 0 0 0 0 0 0 0 0 0 0 1 1 1 1 1 1 3 3 3 3
2 2 2 2 2 2 1 1 1 1 1 1 1 1 1 1 1 2 1 1 1 0 0 0 0 0 0 0 0 0 0 0 0 1 1 1 1 1 1 2 3 4 3
3 3 2 2 2 2 2 2 2 2 1 1 1 1 1 1 1 0 0 1 0 0 1 1 1 1 1 0 1 1 0 0 0 1 1 1 1 1 1 1 2 4 4
3 3 3 3 3 3 3 3 3 2 2 2 1 1 1 1 0 0 0 0 0 0 0 1 1 1 1 1 1 1 0 0 0 0 0 0 1 1 1 1 1 2 4
2 3 3 3 3 3 2 2 3 3 2 2 2 1 1 1 1 1 0 0 0 0 1 1 1 1 1 1 1 0 0 0 0 1 0 1 1 1 1 1 2 2 3
3 3 3 3 2 2 2 2 3 3 2 2 2 1 1 2 1 1 1 1 1 1 1 1 1 0 0 0 0 0 1 1 1 1 1 2 2 2 2 2 2 2 3
3 3 3 3 3 3 3 3 3 2 2 2 2 2 1 1 1 1 1 1 1 1 1 1 1 0 0 0 0 1 1 1 2 2 2 3 2 2 2 2 3 3 3
3 2 2 3 3 3 3 3 2 2 2 2 2 2 2 2 2 2 1 1 1 1 1 1 1 1 0 0 1 1 1 2 2 2 3 3 2 3 3 3 3 3 4
3 3 3 3 3 3 3 2 2 2 2 2 2 2 2 2 2 2 1 1 1 1 1 1 1 1 0 0 1 1 2 2 2 3 3 3 3 4 3 3 4 4 4
3 4 3 3 3 3 3 3 2 2 2 3 2 2 1 1 1 1 1 1 1 1 1 1 1 0 1 1 1 2 2 2 3 3 3 4 4 4 4 4 4 4 4
4 4 4 4 4 4 3 3 3 2 2 3 2 2 1 1 1 1 1 1 0 0 0 1 1 1 1 2 2 2 2 3 3 4 4 4 4 5 6 7 7 6 6
5 5 5 4 4 3 3 3 2 2 3 2 2 2 2 1 1 1 1 1 1 0 1 1 1 1 2 3 3 3 3 3 3 4 4 4 4 4 4 6 8 8 9
5 5 4 4 3 3 3 2 2 2 3 2 2 2 2 2 1 1 1 1 1 1 1 2 2 2 3 3 4 4 3 4 4 4 4 5 5 5 4 4 5 6 7
4 3 3 3 3 3 3 3 3 3 3 3 2 2 2 2 2 2 2 2 1 1 2 2 2 3 4 4 4 4 3 4 5 5 4 5 5 7 7 5 6 7 7
3 3 3 3 3 3 3 4 3 3 4 3 3 2 2 2 3 3 2 1 1 2 2 2 2 3 3 4 4 4 2 4 4 4 4 5 6 8 8 5 5 7 7
3 3 3 3 3 3 4 4 4 4 4 2 2 2 2 3 3 2 1 1 1 1 2 2 3 3 3 5 5 5 3 3 4 4 4 4 7 9 9 8 5 8 8
3 3 3 3 2 3 4 4 5 3 2 2 2 2 2 2 1 1 1 1 1 1 2 2 3 3 3 4 5 6 6 5 4 4 4 4 8 9 9 7 8 10 8
3 3 4 3 2 3 4 5 3 2 2 2 2 2 2 1 1 2 2 1 1 2 2 2 3 3 3 3 5 6 7 7 4 4 6 7 8 8 6 8 10 7 4
4 3 4 4 3 3 3 3 2 2 3 3 2 2 2 2 1 2 2 2 2 3 3 3 4 4 3 3 2 3 4 5 5 4 5 7 7 6 6 5 5 4 4
4 4 4 5 4 3 2 2 2 3 3 3 2 2 2 2 2 2 3 3 4 4 4 4 3 3 4 5 5 3 3 3 3 3 2 3 3 4 4 4 4 4 4
4 4 4 4 3 3 2 2 2 3 4 3 2 2 2 2 2 2 2 4 5 5 7 6 5 5 6 8 7 7 8 7 6 3 3 4 4 4 5 5 5 4 4
Wind_Direction
115 102 97 105 112 100 93 137 125 130 117 45 21 1 22 25 33 42 31 15 9 5 14 6 356 355 15 18 19 54 59 56 58 28 343 328 259 129 63 51 55 43 32
134 111 107 101 153 155 135 210 171 159 146 51 39 15 331 277 173 44 39 20 6 353 1 5 349 344 2 28 14 30 23 332 34 65 334 312 325 7 358 24 35 40 13
196 202 193 177 166 175 214 254 352 103 104 95 69 28 337 301 1 7 3 350 347 343 353 346 337 341 4 86 33 60 53 234 272 75 169 239 259 321 302 343 345 23 5
201 193 187 198 203 203 200 203 124 111 136 140 146 169 258 259 248 234 247 280 307 320 328 332 324 342 359 64 241 95 260 195 242 268 313 256 220 246 292 292 307 351 325
207 205 184 185 190 160 158 174 162 167 180 189 195 209 251 273 269 271 242 323 326 347 359 350 358 341 326 357 9 30 63 206 238 251 288 295 297 249 242 279 292 307 288
198 188 163 154 162 148 156 182 187 209 197 201 221 224 239 278 301 301 312 305 302 312 20 44 197 212 225 231 275 331 25 191 289 277 272 272 265 280 263 274 292 292 281
181 182 175 175 187 182 189 205 221 246 245 227 252 258 255 259 267 259 241 254 270 315 319 35 35 117 98 76 95 92 63 127 207 258 272 279 272 281 278 273 291 294 290
192 188 185 195 203 204 199 205 220 242 248 241 246 254 249 231 252 278 229 216 222 307 360 51 51 62 74 80 114 104 95 93 162 296 292 302 299 279 257 260 287 300 294
191 186 186 197 203 204 206 206 212 223 231 226 218 213 214 209 210 85 63 106 83 63 82 104 90 62 64 62 72 85 68 107 173 238 273 283 285 283 272 260 249 262 289
186 189 195 198 199 204 212 211 214 217 221 212 205 203 203 197 189 113 67 52 130 123 114 88 87 65 60 70 75 28 297 101 294 272 279 279 272 278 269 267 272 262 264
200 198 196 194 188 193 207 216 222 221 214 208 201 199 194 184 174 159 179 210 201 166 144 153 136 113 62 64 128 269 332 327 300 294 283 276 278 271 271 273 277 270 261
199 196 190 187 186 195 210 222 221 212 206 198 188 190 188 173 175 183 203 197 194 183 175 161 150 179 240 222 259 284 290 277 285 286 283 279 279 277 275 270 267 263 262
201 198 195 197 198 201 207 213 216 206 189 181 181 183 181 180 195 206 209 198 196 184 162 151 186 209 204 253 275 267 275 271 274 281 278 280 283 284 283 279 273 271 276
203 204 206 209 210 207 208 206 215 195 179 177 180 188 195 195 206 209 201 201 197 181 182 191 211 212 202 257 286 282 276 275 275 275 276 276 269 268 272 275 275 281 284
217 215 211 212 211 209 208 199 199 180 173 176 184 198 199 197 191 194 198 201 201 221 214 209 236 250 244 267 269 271 271 271 278 281 278 278 277 278 277 278 278 276 273
223 218 212 208 209 208 210 199 194 180 163 173 185 178 164 166 178 204 199 194 221 254 227 242 254 279 281 299 283 276 277 281 281 285 283 282 276 283 282 282 283 279 273
220 212 210 209 207 202 194 196 189 162 160 177 181 173 173 178 191 203 199 212 229 268 272 274 271 273 292 306 305 296 283 282 279 279 282 287 289 277 276 282 283 281 278
217 212 204 202 194 182 173 169 157 156 167 179 190 184 178 190 193 194 219 229 233 242 254 273 269 272 292 305 305 304 280 275 276 276 274 277 285 281 282 287 286 281 279
213 202 188 182 174 176 169 160 164 167 177 193 201 198 186 189 193 215 232 232 224 235 251 260 262 267 283 295 298 297 286 281 282 283 283 281 283 290 293 289 285 289 290
189 178 163 153 167 180 158 161 179 182 201 209 207 193 182 188 206 222 227 230 230 243 256 267 261 264 276 294 295 291 277 282 286 288 284 282 287 295 293 282 281 285 290
178 167 164 170 182 168 159 178 189 209 214 197 184 181 185 201 210 215 214 217 229 253 261 273 278 270 273 288 291 292 274 273 282 284 286 286 291 290 290 289 279 285 300
179 173 171 180 172 163 169 188 209 213 176 161 175 191 198 209 202 203 212 205 208 237 258 272 281 278 280 285 291 292 281 278 268 275 284 291 298 295 293 292 294 298 301
193 183 177 179 183 176 176 199 214 172 159 169 194 199 194 200 203 203 208 215 216 231 256 262 273 284 284 282 285 287 289 286 275 279 290 297 300 301 296 294 299 298 289
201 191 178 189 208 196 183 201 189 156 161 187 201 194 193 204 211 217 214 215 219 228 245 256 265 276 281 274 281 279 284 288 284 286 295 300 301 300 301 300 294 283 278
199 188 191 200 210 193 190 189 169 157 171 190 199 199 199 209 218 226 231 229 232 229 234 240 242 258 268 276 291 295 284 287 286 307 302 297 300 298 296 294 289 288 287
186 186 193 198 204 192 202 193 176 170 173 191 203 209 209 216 221 236 267 258 252 266 265 267 268 268 278 295 290 287 288 291 298 300 280 280 281 282 286 287 287 280 278